Regional Weather Roundup
Issued by NWS Cleveland, OH

Home | Current Version | Previous Version | Text Only | Print | Product List | Glossary Off
Versions: 1 2 3 4 5 6 7 8 9 10 11 12 13 14 15 16 17 18 19 20 21 22 23 24 25 26 27 28 29 30 31 32 33 34 35 36 37 38 39 40 41 42 43 44 45 46 47 48 49 50

000
ASUS41 KCLE 190502
RWRCLE
OHIO REGIONAL WEATHER ROUNDUP
NATIONAL WEATHER SERVICE CLEVELAND, OH
1200 AM EST FRI DEC 19 2014

NOTE: "FAIR" INDICATES FEW OR NO CLOUDS BELOW 12,000 FEET WITH NO
SIGNIFICANT WEATHER AND/OR OBSTRUCTIONS TO VISIBILITY.

OHZ001>008-015>018-024>027-034-035-043-044-190600-
   NORTHWEST OHIO

CITY           SKY/WX    TMP DP  RH WIND       PRES   REMARKS
DEFIANCE       CLOUDY    29  24  82 W5        30.23R WCI  24
FINDLAY        CLOUDY    29  24  82 W8        30.20S WCI  21
TOLEDO EXPRESS CLOUDY    29  24  82 W6        30.20S WCI  23
TOLEDO EXEC    CLOUDY    31  25  78 W9        30.21S WCI  23
LIMA           CLOUDY    30  23  75 W6        30.21S HAZE    WCI  24
$$

OHZ009>014-019>023-028>033-038-089-190600-
   NORTHEAST OHIO

CITY           SKY/WX    TMP DP  RH WIND       PRES   REMARKS
CLE-HOPKINS    FRZ DRZL  29  26  89 W12       30.19S FOG     WCI  19
CLE-LAKEFRONT  LGT SNOW  32  28  85 SW17      30.16S FOG     WCI  21
CUY CO. ARPT   NOT AVBL
LORAIN-ELYRIA  CLOUDY    29  27  92 W10       30.18S FOG     WCI  20
ASHTABULA      CLOUDY    30  27  88 W5        30.13S WCI  25
AKRON-CANTON   CLOUDY    29  25  85 W9        30.15S FOG     WCI  20
WOOSTER        CLOUDY    28  26  92 W9        30.17S WCI  19
MANSFIELD      CLOUDY    27  25  92 W8        30.17R FOG     WCI  19
YOUNGSTOWN     FRZ RAIN  28  26  92 SW9       30.12F FOG     WCI  19
$$

OHZ042-051>053-060>062-070>072-077>081-190600-
  SOUTHWEST OHIO

CITY           SKY/WX    TMP DP  RH WIND       PRES   REMARKS
CINC-COVINGTON PTCLDY    27  20  75 N3        30.24S
CINC-LUNKEN    PTCLDY    26  21  81 CALM      30.27S
HAMILTON       PTCLDY    24  21  88 CALM      30.26F
DAYTON         CLOUDY    27  22  81 W5        30.23S WCI  22
WRIGHT-PAT AFB CLOUDY    28  22  79 W5        30.23S WCI  22
DAYTON GENERAL CLOUDY    28  21  75 NW5       30.22S WCI  23
WILMINGTON     CLOUDY    27  20  75 W5        30.22S WCI  22
$$

OHZ036-037-039>041-045>050-054>059-063>069-073>076-082>088-190600-
  CENTRAL AND SOUTHEAST OHIO

CITY           SKY/WX    TMP DP  RH WIND       PRES   REMARKS
COLUMBUS       CLOUDY    28  22  78 NW7       30.21S WCI  21
OSU AIRPORT    CLOUDY    28  22  78 W8        30.21S WCI  20
BOLTON FIELD   NOT AVBL
RICKENBACK AFB NOT AVBL
NEWARK         CLOUDY    29  22  75 W5        30.20S WCI  24
MARION         CLOUDY    28  24  85 W6        30.20S FOG     WCI  22
LANCASTER      CLOUDY    29  23  78 W3        30.22S
ZANESVILLE     CLOUDY    27  22  81 SW3       30.20S
NEW PHILLY     CLOUDY    29  23  78 SW5       30.19S WCI  24
$$



USA.gov is the U.S. government's official web portal to all federal, state and local government web resources and services.